Location: ????????
(48.4751°N, 37.6926°E)
Time: 13:04:56
(UTC+00:00)

Cosmos 1538 Rocket - Pass Details

Date: 20 January 2021
Orbit: 753 x 791 km, 74.0° (Epoch: 27 February)

Event Time Altitude Azimuth Distance (km) Brightness Sun altitude
Rises 15:27:13 0° 337° (NNW) 3,221 7.3 -12.7°
Reaches altitude 10° 15:29:36 10° 339° (NNW) 2,289 6.5 -13.1°
Maximum altitude 15:34:48 80° 66° (ENE) 771 3.9 -13.9°
Drops below altitude 10° 15:39:58 10° 154° (SSE) 2,274 6.3 -14.8°
Sets 15:42:19 0° 156° (SSE) 3,197 7.1 -15.1°
